TimeEST,TemperatureF,Dew PointF,Humidity,Sea Level PressureIn,VisibilityMPH,Wind Direction,Wind SpeedMPH,Gust SpeedMPH,PrecipitationIn,Events,Conditions,WindDirDegrees,DateUTC
12:15 AM,30.2,21.2,69,30.26,7.0,Calm,Calm,-,0.01,Snow,Light Snow,0,2013-11-26 05:15:00
12:35 AM,30.2,24.8,80,30.25,7.0,Calm,Calm,-,0.01,,Overcast,0,2013-11-26 05:35:00
12:55 AM,30.2,26.6,86,30.24,10.0,Calm,Calm,-,N/A,,Overcast,0,2013-11-26 05:55:00
1:15 AM,30.2,26.6,86,30.23,7.0,Calm,Calm,-,N/A,,Overcast,0,2013-11-26 06:15:00
1:35 AM,30.2,28.4,93,30.23,7.0,Calm,Calm,-,N/A,,Overcast,0,2013-11-26 06:35:00
1:55 AM,30.2,28.4,93,30.22,4.0,SE,4.6,-,N/A,,Overcast,140,2013-11-26 06:55:00
2:15 AM,30.2,28.4,93,30.22,4.0,Calm,Calm,-,N/A,,Overcast,0,2013-11-26 07:15:00
2:35 AM,30.2,30.2,100,30.22,7.0,Calm,Calm,-,N/A,,Overcast,0,2013-11-26 07:35:00
2:55 AM,32.0,30.2,93,30.22,5.0,Calm,Calm,-,N/A,,Overcast,0,2013-11-26 07:55:00
3:15 AM,32.0,30.2,93,30.21,4.0,Calm,Calm,-,N/A,,Overcast,0,2013-11-26 08:15:00
3:35 AM,32.0,30.2,93,30.20,5.0,Calm,Calm,-,N/A,,Overcast,0,2013-11-26 08:35:00
3:55 AM,32.0,30.2,93,30.20,5.0,Calm,Calm,-,N/A,,Overcast,0,2013-11-26 08:55:00
4:15 AM,33.8,30.2,87,30.19,5.0,Calm,Calm,-,N/A,,Overcast,0,2013-11-26 09:15:00
4:35 AM,33.8,30.2,87,30.20,2.5,Calm,Calm,-,N/A,,Overcast,0,2013-11-26 09:35:00
4:55 AM,33.8,32.0,93,30.19,1.8,SE,3.5,-,N/A,,Overcast,140,2013-11-26 09:55:00
5:15 AM,33.8,32.0,93,30.19,1.8,SSE,3.5,-,N/A,,Overcast,150,2013-11-26 10:15:00
5:35 AM,33.8,33.8,100,30.18,1.5,Calm,Calm,-,0.01,,Overcast,0,2013-11-26 10:35:00
5:55 AM,35.6,33.8,93,30.18,3.0,South,3.5,-,N/A,,Overcast,170,2013-11-26 10:55:00
6:15 AM,35.6,33.8,93,30.17,3.0,SSE,3.5,-,N/A,,Overcast,160,2013-11-26 11:15:00
6:35 AM,35.6,35.6,100,30.16,2.5,SSE,4.6,-,N/A,,Overcast,160,2013-11-26 11:35:00
6:55 AM,37.4,35.6,93,30.15,4.0,SSE,3.5,-,N/A,,Overcast,160,2013-11-26 11:55:00
7:15 AM,37.4,35.6,93,30.15,4.0,South,4.6,-,N/A,,Overcast,180,2013-11-26 12:15:00
7:35 AM,37.4,37.4,100,30.14,3.0,South,5.8,-,N/A,,Overcast,190,2013-11-26 12:35:00
7:55 AM,37.4,37.4,100,30.14,1.5,Calm,Calm,-,N/A,,Overcast,0,2013-11-26 12:55:00
8:15 AM,37.4,37.4,100,30.14,0.2,Calm,Calm,-,N/A,,Overcast,0,2013-11-26 13:15:00
8:35 AM,37.4,37.4,100,30.14,0.2,SW,4.6,-,N/A,,Overcast,220,2013-11-26 13:35:00
8:55 AM,37.4,35.6,93,30.14,0.2,Calm,Calm,-,N/A,,Overcast,0,2013-11-26 13:55:00
9:15 AM,37.4,37.4,100,30.14,0.2,WSW,3.5,-,N/A,,Overcast,250,2013-11-26 14:15:00
9:35 AM,37.4,35.6,93,30.12,0.2,Calm,Calm,-,N/A,Snow,Light Snow,0,2013-11-26 14:35:00
9:55 AM,37.4,35.6,93,30.11,0.2,Calm,Calm,-,N/A,Snow,Light Snow,0,2013-11-26 14:55:00
10:15 AM,37.4,35.6,93,30.09,0.2,NE,4.6,-,N/A,,Overcast,40,2013-11-26 15:15:00
10:35 AM,37.4,35.6,93,30.09,0.2,NNE,3.5,-,N/A,,Overcast,20,2013-11-26 15:35:00
10:55 AM,37.4,35.6,93,30.08,0.2,Calm,Calm,-,N/A,,Overcast,0,2013-11-26 15:55:00
11:15 AM,37.4,35.6,93,30.06,0.2,ENE,5.8,-,N/A,,Overcast,70,2013-11-26 16:15:00
11:35 AM,39.2,39.2,100,30.04,0.2,East,8.1,-,N/A,,Overcast,100,2013-11-26 16:35:00
11:55 AM,44.6,42.8,93,30.02,1.5,ESE,6.9,-,N/A,Rain,Rain,110,2013-11-26 16:55:00
12:15 PM,44.6,44.6,100,30.00,1.8,ESE,5.8,-,N/A,Rain,Rain,120,2013-11-26 17:15:00
12:35 PM,46.4,44.6,93,29.97,3.0,ESE,11.5,16.1,0.04,Rain,Rain,120,2013-11-26 17:35:00
12:55 PM,46.4,46.4,100,29.95,3.0,ESE,10.4,17.3,0.04,Rain,Rain,120,2013-11-26 17:55:00
1:15 PM,46.4,46.4,100,29.92,2.5,ESE,9.2,-,0.10,Rain,Rain,120,2013-11-26 18:15:00
1:35 PM,46.4,46.4,100,29.90,3.0,ESE,9.2,-,0.17,Rain,Rain,120,2013-11-26 18:35:00
1:55 PM,48.2,46.4,93,29.86,4.0,ESE,10.4,24.2,0.03,Rain,Rain,110,2013-11-26 18:55:00
2:15 PM,48.2,48.2,100,29.85,4.0,ESE,8.1,-,0.08,Rain,Rain,120,2013-11-26 19:15:00
2:35 PM,48.2,46.4,93,29.85,7.0,SE,6.9,19.6,0.12,Rain,Light Rain,140,2013-11-26 19:35:00
2:55 PM,48.2,46.4,93,29.84,3.0,SSE,6.9,-,0.03,Rain,Rain,150,2013-11-26 19:55:00
3:15 PM,46.4,46.4,100,29.85,3.0,SW,8.1,-,0.10,Rain,Rain,230,2013-11-26 20:15:00
3:35 PM,44.6,44.6,100,29.86,2.0,WSW,5.8,-,0.22,Rain,Rain,250,2013-11-26 20:35:00
3:55 PM,42.8,42.8,100,29.87,2.0,WNW,3.5,-,0.07,,Overcast,290,2013-11-26 20:55:00
4:15 PM,42.8,42.8,100,29.85,0.8,NNW,5.8,-,0.19,,Overcast,330,2013-11-26 21:15:00
4:35 PM,41.0,39.2,93,29.85,0.8,North,4.6,-,0.30,,Overcast,350,2013-11-26 21:35:00
4:55 PM,41.0,39.2,93,29.82,0.5,North,6.9,-,0.06,,Overcast,360,2013-11-26 21:55:00
5:15 PM,39.2,39.2,100,29.81,0.8,North,6.9,-,0.13,,Overcast,360,2013-11-26 22:15:00
5:35 PM,39.2,39.2,100,29.78,1.0,North,6.9,-,0.22,,Overcast,10,2013-11-26 22:35:00
5:55 PM,39.2,39.2,100,29.77,0.8,NNE,6.9,-,0.02,,Overcast,30,2013-11-26 22:55:00
6:15 PM,39.2,39.2,100,29.78,1.8,North,8.1,-,0.11,,Overcast,360,2013-11-26 23:15:00
6:35 PM,39.2,39.2,100,29.78,2.0,North,4.6,-,0.26,,Overcast,360,2013-11-26 23:35:00
6:55 PM,41.0,39.2,93,29.76,2.5,NE,8.1,-,0.02,,Overcast,40,2013-11-26 23:55:00
7:15 PM,41.0,39.2,93,29.75,3.0,ENE,6.9,-,0.07,,Overcast,60,2013-11-27 00:15:00
7:35 PM,41.0,39.2,93,29.74,4.0,East,6.9,-,0.11,,Overcast,90,2013-11-27 00:35:00
7:55 PM,41.0,39.2,93,29.72,4.0,ENE,4.6,-,0.01,,Overcast,70,2013-11-27 00:55:00
8:15 PM,41.0,39.2,93,29.72,3.0,Calm,Calm,-,0.02,,Overcast,0,2013-11-27 01:15:00
8:35 PM,41.0,39.2,93,29.70,1.8,NNE,3.5,-,0.02,,Overcast,30,2013-11-27 01:35:00
8:55 PM,41.0,39.2,93,29.70,0.8,NNW,3.5,-,0.01,,Overcast,340,2013-11-27 01:55:00
9:15 PM,41.0,39.2,93,29.67,0.2,North,4.6,-,0.01,Fog,Fog,350,2013-11-27 02:15:00
9:35 PM,41.0,39.2,93,29.67,0.2,Calm,Calm,-,0.01,Fog,Fog,0,2013-11-27 02:35:00
9:55 PM,41.0,39.2,93,29.66,0.2,NNW,4.6,-,N/A,,Overcast,340,2013-11-27 02:55:00
10:15 PM,41.0,39.2,93,29.66,1.0,NW,4.6,-,0.01,,Overcast,310,2013-11-27 03:15:00
10:35 PM,41.0,39.2,93,29.67,0.8,NW,10.4,-,0.02,,Overcast,310,2013-11-27 03:35:00
10:55 PM,41.0,39.2,93,29.66,1.5,NNW,6.9,-,N/A,,Overcast,330,2013-11-27 03:55:00
11:15 PM,41.0,39.2,93,29.66,2.0,NNW,6.9,-,0.01,,Overcast,330,2013-11-27 04:15:00
11:35 PM,41.0,41.0,100,29.66,1.5,NNW,5.8,-,0.01,,Overcast,340,2013-11-27 04:35:00
11:55 PM,42.8,41.0,93,29.66,1.5,NNW,4.6,-,N/A,,Overcast,340,2013-11-27 04:55:00